Wind_Speed
17 17 17 17 18 18 17 17 17 17 17 17 17 17 18 17 18 17 16 16 16 15 15 15 15 15 15 15 15 15 14 14 14 14 14 14 14 14
18 18 18 18 18 18 18 19 19 18 18 17 18 19 19 19 18 17 17 17 16 16 16 17 16 16 17 17 16 16 16 16 16 16 15 15 15 15
19 20 20 20 20 19 19 19 20 19 19 19 20 20 19 19 19 18 18 18 18 18 18 18 18 18 18 18 18 18 17 17 17 17 16 16 16 16
19 20 20 21 21 21 21 20 20 21 20 20 20 20 20 20 20 20 20 19 19 19 19 19 20 20 20 19 19 19 19 19 19 18 18 18 18 18
19 20 21 21 21 21 22 22 21 21 21 21 21 21 21 21 21 21 20 20 19 19 19 19 19 19 19 19 19 19 19 19 20 19 19 19 19 19
21 21 21 22 22 22 23 23 23 22 22 22 22 22 22 22 22 21 20 20 20 20 19 19 20 20 20 20 20 20 20 20 20 20 20 20 20 20
22 22 22 22 23 22 23 23 23 22 22 22 22 22 23 23 22 22 21 21 20 20 20 20 21 21 21 21 21 21 21 21 21 21 21 21 21 21
22 22 23 23 23 23 23 23 23 23 23 23 23 23 23 23 23 23 22 22 22 22 22 22 22 22 22 22 21 21 22 22 21 22 22 22 22 21
23 24 24 24 23 23 23 24 24 24 23 23 23 23 23 23 23 23 23 23 23 23 23 23 23 22 22 22 22 22 22 22 22 22 22 22 21 20
24 24 25 25 25 25 25 25 25 25 24 24 24 24 25 24 24 24 24 24 23 23 24 23 23 23 23 23 23 23 23 23 23 22 22 22 22 21
25 25 25 25 25 26 26 26 26 25 25 25 25 26 26 25 25 25 25 25 25 25 25 25 25 24 24 25 25 25 24 24 23 23 23 22 22 22
26 25 25 26 26 26 26 26 26 26 26 26 26 26 26 26 25 25 25 25 26 26 26 26 26 25 24 25 25 25 25 25 25 25 24 24 24 23
25 26 26 27 27 27 27 27 27 27 27 27 27 27 27 27 27 26 25 25 26 27 27 27 27 26 26 25 26 26 26 26 26 26 26 26 26 25
25 26 26 27 27 27 27 27 27 28 27 27 27 27 27 27 27 28 27 27 27 28 28 27 27 27 27 27 26 26 27 27 27 27 27 27 27 27
25 26 26 27 27 28 28 28 29 28 28 28 28 28 28 28 28 29 29 29 28 28 28 28 28 27 27 27 27 27 27 27 27 28 28 28 27 27
27 26 27 27 28 28 29 29 30 30 30 29 29 29 30 30 30 30 30 30 30 29 29 29 29 28 28 28 28 28 28 28 28 28 28 28 28 28
28 28 28 28 28 29 30 30 31 31 31 31 30 30 30 31 31 31 30 30 30 30 30 30 30 30 30 30 29 29 29 29 29 29 29 29 29 29
29 28 28 28 28 29 29 30 31 31 32 32 31 31 32 32 32 32 32 31 31 31 30 31 31 31 31 30 30 30 30 30 30 30 30 30 29 29
29 29 29 28 29 30 30 30 31 32 32 33 33 32 32 32 33 33 33 32 32 32 32 31 32 32 32 31 30 31 31 31 31 30 30 30 30 29
29 30 30 30 29 30 30 30 31 32 33 33 33 34 33 33 33 33 33 33 33 33 33 33 32 32 32 32 31 32 32 31 31 31 31 31 30 31
28 29 29 29 29 29 29 29 30 31 32 33 33 34 34 34 34 34 34 34 33 33 33 33 32 32 33 33 33 32 32 32 32 32 32 32 31 31
27 28 28 29 29 30 30 30 30 31 32 33 33 33 34 34 35 35 34 34 34 34 33 33 33 34 34 34 34 33 33 33 34 33 33 33 32 32
27 28 28 28 29 29 30 30 31 30 31 32 33 34 34 34 35 35 36 36 35 35 35 35 34 35 35 35 35 35 35 34 34 34 33 33 33 33
Wind_Direction
258 256 255 255 255 256 257 257 259 260 260 259 257 253 254 255 258 258 257 258 259 257 256 257 257 258 260 261 263 265 268 270 272 273 276 278 279 279
259 258 257 258 259 257 257 257 256 258 259 258 258 257 255 257 257 257 256 258 258 259 258 259 257 259 260 261 262 264 267 269 270 271 272 275 278 280
260 259 259 259 260 258 257 257 256 256 257 256 258 258 256 254 256 257 257 259 259 259 260 258 257 258 260 261 263 264 266 267 268 271 272 273 276 278
263 261 260 262 260 258 257 258 257 256 255 256 257 256 255 253 254 256 257 258 260 260 261 261 260 259 260 262 264 264 266 267 268 270 271 273 276 277
265 263 261 261 260 258 257 258 257 256 255 255 256 256 255 254 253 254 256 257 259 260 261 262 260 260 261 262 263 263 265 265 267 269 271 272 274 277
265 264 263 262 261 260 259 259 256 255 255 255 255 255 255 255 254 255 255 256 258 259 261 264 264 263 264 265 263 263 265 266 267 268 270 271 272 274
265 263 262 264 263 262 262 260 258 256 255 256 256 256 257 255 255 256 254 254 257 259 261 264 266 266 266 265 264 264 265 265 267 268 270 271 273 273
264 263 263 264 263 262 263 259 258 258 257 256 256 256 256 256 256 256 255 255 256 258 260 264 266 265 266 266 265 265 266 267 268 270 270 271 272 272
263 263 263 263 262 261 260 258 257 258 257 257 257 256 256 258 257 256 255 256 257 259 260 262 264 264 264 265 266 266 267 267 268 269 268 269 270 271
263 262 262 261 260 259 258 258 258 256 256 256 255 255 256 256 256 256 256 257 258 259 260 261 263 263 264 265 267 268 268 267 267 268 268 267 268 269
265 264 261 259 258 258 258 258 257 257 256 255 255 254 255 255 255 256 256 256 256 258 260 262 263 263 264 265 266 267 267 266 266 266 266 266 266 267
265 263 262 260 259 259 259 258 257 258 257 256 255 253 253 254 255 256 256 257 258 258 260 262 263 263 264 264 265 265 266 267 266 266 265 266 267 267
265 264 262 260 259 259 259 258 257 256 256 256 255 254 254 254 255 255 256 258 259 259 260 261 262 262 263 264 265 266 267 267 267 267 267 267 267 267
266 265 263 261 259 258 258 257 256 255 255 255 255 256 255 254 255 255 256 258 259 259 259 260 261 262 262 262 264 266 267 267 267 267 266 266 266 267
267 266 264 263 260 259 258 256 254 255 255 254 256 256 257 256 256 256 258 260 261 260 260 259 260 260 261 261 262 265 266 267 268 268 267 266 265 265
267 266 264 262 261 261 259 257 256 256 256 256 257 257 258 258 258 259 260 260 261 260 261 261 259 259 261 261 263 265 266 266 267 267 266 265 265 265
267 266 264 262 261 261 260 258 256 256 256 257 258 259 258 258 259 260 260 260 260 260 260 261 261 260 261 262 264 264 265 265 266 266 265 265 265 265
267 266 265 264 263 262 261 259 257 256 256 256 257 258 258 258 259 260 260 259 259 259 260 261 260 261 261 263 265 265 264 264 265 265 264 264 264 264
268 267 266 265 264 263 262 261 260 258 257 256 256 256 258 258 259 260 260 259 259 258 259 260 261 261 263 264 263 264 264 264 264 264 263 263 262 262
269 268 266 266 265 264 264 262 261 260 259 258 257 256 257 258 258 259 260 260 260 259 259 260 261 262 263 264 263 264 263 263 263 262 262 262 262 262
269 267 265 264 265 265 265 265 263 262 260 260 259 258 258 259 258 259 259 260 260 260 260 260 261 262 262 262 262 262 262 262 262 261 261 261 261 262
269 267 265 264 264 265 265 265 265 264 262 260 260 259 258 258 258 258 259 260 261 261 261 261 262 262 262 261 260 261 261 261 260 260 261 261 260 260
270 269 266 265 265 265 266 267 266 266 265 263 261 260 259 259 260 259 259 260 260 261 261 262 262 262 262 260 259 259 260 261 261 260 260 261 260 260
Height
5799 5799 5799 5799 5800 5800 5801 5801 5802 5802 5802 5802 5803 5803 5803 5804 5804 5805 5805 5806 5806 5806 5806 5806 5807 5807 5807 5808 5808 5808 5807 5807 5807 5806 5806 5805 5804 5803
5793 5794 5794 5794 5795 5795 5796 5796 5797 5797 5797 5798 5798 5798 5799 5799 5800 5800 5801 5801 5802 5802 5802 5803 5803 5803 5803 5804 5804 5804 5804 5803 5803 5802 5802 5801 5801 5800
5788 5788 5789 5789 5789 5790 5790 5791 5791 5792 5792 5793 5793 5793 5794 5795 5795 5796 5796 5797 5797 5797 5798 5798 5798 5799 5799 5799 5799 5799 5799 5799 5798 5798 5798 5797 5797 5796
5782 5782 5783 5783 5783 5784 5784 5785 5786 5786 5787 5787 5787 5788 5789 5789 5790 5791 5791 5792 5792 5792 5793 5793 5793 5794 5794 5794 5794 5794 5794 5794 5794 5793 5793 5792 5792 5791
5776 5776 5776 5777 5777 5777 5778 5779 5780 5780 5781 5781 5782 5782 5783 5784 5784 5785 5786 5786 5787 5787 5788 5788 5788 5788 5789 5789 5789 5789 5789 5789 5789 5788 5788 5787 5786 5786
5770 5770 5770 5770 5770 5771 5771 5772 5773 5774 5774 5775 5776 5776 5777 5778 5778 5779 5780 5781 5781 5782 5782 5783 5783 5783 5783 5784 5784 5784 5784 5783 5783 5783 5782 5781 5781 5780
5763 5763 5763 5764 5764 5764 5765 5765 5766 5766 5767 5768 5769 5770 5771 5771 5772 5773 5774 5775 5775 5776 5776 5777 5777 5777 5777 5777 5778 5778 5778 5777 5777 5777 5776 5776 5775 5775
5757 5756 5757 5757 5757 5758 5758 5758 5759 5759 5760 5761 5762 5763 5764 5765 5766 5767 5768 5768 5769 5770 5770 5771 5771 5771 5771 5771 5771 5771 5771 5771 5771 5771 5770 5770 5769 5769
5749 5749 5749 5750 5750 5751 5751 5751 5752 5752 5753 5754 5755 5756 5757 5758 5759 5760 5761 5762 5763 5763 5764 5764 5764 5764 5764 5764 5764 5764 5764 5764 5764 5764 5764 5763 5763 5763
5742 5742 5742 5742 5743 5743 5743 5744 5744 5745 5746 5747 5748 5749 5750 5751 5752 5753 5753 5755 5755 5756 5756 5757 5757 5757 5756 5757 5757 5757 5757 5757 5757 5757 5757 5757 5757 5756
5734 5734 5734 5734 5735 5735 5736 5736 5737 5737 5738 5739 5740 5741 5742 5743 5744 5745 5746 5747 5748 5748 5748 5749 5749 5749 5749 5749 5749 5749 5749 5750 5750 5750 5750 5750 5750 5750
5725 5725 5726 5726 5726 5726 5727 5728 5729 5729 5730 5731 5732 5733 5734 5735 5736 5737 5738 5739 5740 5740 5740 5741 5741 5741 5741 5741 5741 5741 5741 5741 5742 5742 5742 5743 5743 5742
5717 5717 5717 5717 5718 5718 5719 5719 5720 5721 5721 5722 5723 5725 5726 5727 5728 5729 5730 5730 5731 5732 5732 5732 5732 5732 5733 5733 5733 5733 5733 5733 5733 5734 5734 5734 5735 5735
5708 5708 5708 5708 5708 5709 5710 5710 5711 5712 5713 5714 5715 5716 5717 5718 5719 5720 5721 5721 5722 5722 5723 5723 5723 5724 5724 5724 5725 5725 5724 5724 5725 5725 5725 5726 5726 5726
5699 5699 5699 5699 5699 5700 5700 5701 5702 5703 5704 5705 5706 5707 5708 5709 5710 5711 5712 5712 5712 5713 5713 5714 5714 5714 5715 5715 5716 5716 5716 5716 5716 5716 5716 5717 5717 5717
5690 5690 5690 5690 5690 5691 5691 5692 5692 5693 5694 5696 5697 5698 5699 5699 5700 5701 5702 5703 5703 5704 5704 5704 5704 5705 5706 5706 5706 5707 5707 5707 5707 5707 5707 5707 5708 5708
5680 5680 5680 5680 5681 5681 5681 5682 5683 5684 5685 5686 5687 5688 5689 5690 5691 5692 5692 5693 5693 5694 5694 5695 5695 5695 5696 5696 5697 5697 5697 5698 5698 5698 5698 5699 5699 5699
5670 5670 5670 5670 5671 5671 5671 5672 5672 5673 5674 5675 5677 5678 5679 5680 5680 5681 5682 5683 5683 5684 5684 5685 5685 5685 5686 5687 5688 5687 5687 5688 5688 5688 5689 5689 5690 5690
5660 5660 5660 5660 5661 5661 5661 5662 5662 5663 5664 5665 5666 5667 5669 5669 5670 5671 5671 5672 5673 5673 5674 5674 5675 5675 5676 5677 5678 5677 5677 5678 5678 5679 5679 5680 5680 5681
5650 5650 5650 5650 5650 5651 5651 5652 5652 5653 5653 5654 5655 5657 5658 5659 5659 5660 5661 5662 5662 5663 5663 5664 5664 5665 5665 5666 5667 5667 5667 5667 5668 5668 5669 5670 5670 5671
5640 5640 5640 5640 5641 5641 5641 5642 5642 5643 5643 5644 5644 5646 5647 5648 5649 5649 5650 5651 5651 5652 5653 5654 5654 5654 5654 5655 5656 5656 5657 5657 5657 5658 5659 5660 5660 5661
5630 5630 5630 5631 5631 5631 5631 5632 5632 5632 5633 5633 5634 5635 5636 5637 5637 5638 5639 5640 5640 5641 5642 5642 5643 5643 5643 5644 5645 5646 5646 5647 5647 5648 5649 5650 5650 5651
5621 5621 5621 5621 5621 5621 5621 5621 5621 5622 5622 5622 5623 5623 5624 5625 5626 5627 5627 5628 5629 5630 5630 5631 5632 5632 5632 5633 5633 5634 5635 5635 5636 5637 5639 5639 5640 5641